Location: Constantia
(34.0183°S, 18.4411°E)
Time: 04:40:41
(UTC+00:00)

Cosmos 2221 - Pass Details

Date: 17 February 2020
Orbit: 593 x 615 km, 82.5° (Epoch: 02 April)

Event Time Altitude Azimuth Distance (km) Brightness Sun altitude
Rises 03:53:17 0° 203° (SSW) 2,877 6.0 -6.6°
Reaches altitude 10° 03:55:51 10° 216° (SW) 1,961 5.0 -6.1°
Maximum altitude 03:59:18 23° 269° (W) 1,279 3.7 -5.5°
Drops below altitude 10° 04:02:42 10° 322° (NW) 1,932 4.6 -4.8°
Sets 04:05:13 0° 336° (NNW) 2,823 5.5 -4.3°
